Regional Weather Roundup
Issued by NWS

Home | Current Version | Previous Version | Graphics & Text | Print | Product List | Glossary Off
Versions: 1 2 3 4 5 6 7 8 9 10 11 12 13 14 15 16 17 18 19 20 21 22 23 24 25 26 27 28 29 30 31 32 33 34 35 36 37 38 39 40 41 42 43 44 45 46 47 48 49 50

000
ASUS43 KTOP 121259
RWRKS

WEATHER ROUNDUP FOR KANSAS
NATIONAL WEATHER SERVICE GOODLAND KS
700 AM CST TUE DEC 12 2017

NOTE:  "FAIR" INDICATES FEW OR NO CLOUDS BELOW 12,000 FEET WITH NO
SIGNIFICANT WEATHER AND/OR OBSTRUCTIONS TO VISIBILITY.

KSZ001>006-013>018-027>032-041>047-121400-
NORTHWEST KANSAS

CITY           SKY/WX    TMP DP  RH WIND       PRES   REMARKS
GOODLAND       CLEAR     24  10  55 W12       30.33F WCI  13
HAYS           CLOUDY    20  17  88 W7        30.39S
HILL CITY      CLOUDY    23  19  85 NW6       30.37F
RUSSELL        CLOUDY    19  19 100 W7        30.37S
$$

KSZ061>065-074>080-084>089-121400-
SOUTHWEST KANSAS

CITY           SKY/WX    TMP DP  RH WIND       PRES   REMARKS
DODGE CITY     CLOUDY    18  13  80 SW5       30.40F
GARDEN CITY    CLOUDY    18  12  77 W7        30.39F
GREAT BEND     CLOUDY    23  20  88 W10       30.40S WCI  12
LIBERAL        CLOUDY    20  12  71 W12       30.42F WCI   8
$$

KSZ066>073-081>083-090>101-121400-
SOUTHEAST KANSAS

CITY           SKY/WX    TMP DP  RH WIND       PRES   REMARKS
CHANUTE        CLEAR     26  20  77 N7        30.35S
COFFEYVILLE    CLEAR     27  23  85 W5        30.37R
HUTCHINSON     CLOUDY    22  21  96 NW7       30.39R
MEDICINE LODGE   N/A     26  23  88 NW5       30.41S
NEWTON         CLOUDY    25  21  85 NW7       30.38R
PARSONS        CLEAR     28  24  85 N7        30.35S
WICHITA INTL   CLOUDY    26  22  84 NW7       30.39R
WICHITA JABRA  CLOUDY    27  24  89 W7        30.38S
WICHITA MCCONL CLOUDY    29  23  77 NW10      30.38R WCI  20
WINFIELD       CLOUDY    22  20  92 N7        30.40S
$$

KSZ007>012-019>026-033>040-048>060-102>105-121400-
NORTHEAST KANSAS

CITY           SKY/WX    TMP DP  RH WIND       PRES   REMARKS
CONCORDIA      CLOUDY    28  25  88 W3        30.36S
EMPORIA        CLEAR     25  20  81 NW6       30.36R
LAWRENCE       CLEAR     21  15  78 W9        30.38R
MANHATTAN      CLOUDY    23  18  81 CALM      30.39R
OLATHE IND     CLEAR     20  15  81 NW8       30.35R
OLATHE EXE     CLEAR     22  16  78 NW9       30.33R
SALINA         CLOUDY    27  23  85 CALM      30.39S
TOPEKA BILLARD CLOUDY    22  16  78 W5        30.38R
TOPEKA FORBES  CLOUDY    22  15  75 NW7       30.36R
$$




USA.gov is the U.S. government's official web portal to all federal, state and local government web resources and services.